カタログに戻る

COSMOS 970 DEB

運用中LEO
NORAD 64967·DEBRIS·🇷🇺 Russia

打ち上げ Dec 21, 1977 から Baikonur Cosmodrome

Loading…

次のパス (今後24時間)

TLE

最新Source: Space-Track

元期: Sep 13, 2026, 03:35 UTC

1 64967U 77121CC  26256.14988267  .00000048  00000-0  15693-3 0  9995
2 64967  65.7386 198.4152 0105078 195.4617 180.9270 13.62638937636823

AllMySatでCOSMOS 970 DEBをリアルタイム追跡

Download on the App Store